This is the latest recevied weather packets stored in our database for station/object W4TBD-13. If no packets are shown the sender has not sent any weather packets the latest 10 day(s).
| Time | Temp. | Humidity | Pressure | Rain* | Wind** | Luminosity | Snow |
|---|---|---|---|---|---|---|---|
| 1778063104 | 17.78° C | 77% | 1002.4 hPa | 0 mm | - | 1 W/m² | - |
| 1778062804 | 17.78° C | 77% | 1002.4 hPa | 0 mm | - | 0 W/m² | - |
| 1778059804 | 17.78° C | 76% | 1002 hPa | 0 mm | - | 0 W/m² | - |
| 1778057404 | 17.78° C | 78% | 1002.2 hPa | 0 mm | - | 0 W/m² | - |
| 1778054105 | 17.78° C | 77% | 1002.4 hPa | 0 mm | - | 0 W/m² | - |
| 1778053804 | 18.33° C | 77% | 1002.4 hPa | 0 mm | - | 0 W/m² | - |
| 1778053204 | 18.33° C | 76% | 1002.5 hPa | 0 mm | - | 0 W/m² | - |
| 1778052604 | 18.33° C | 76% | 1002.5 hPa | 0 mm | - | 0 W/m² | - |
| 1778051103 | 18.33° C | 74% | 1002.8 hPa | 0 mm | - | 0 W/m² | - |
| 1778049904 | 18.89° C | 73% | 1002.7 hPa | 0 mm | - | 0 W/m² | - |
| 1778049004 | 18.89° C | 72% | 1003 hPa | 0 mm | - | 0 W/m² | - |
| 1778045104 | 19.44° C | 70% | 1003.1 hPa | 0 mm | - | 0 W/m² | - |
| 1778044804 | 19.44° C | 70% | 1003 hPa | 0 mm | - | 0 W/m² | - |
| 1778041806 | 20.56° C | 67% | 1003.4 hPa | 0 mm | - | 0 W/m² | - |
| 1778041204 | 20.56° C | 66% | 1003.3 hPa | 0 mm | - | 0 W/m² | - |
| 1778036105 | 21.67° C | 59% | 1003.4 hPa | 0 mm | - | 0 W/m² | - |
| 1778027705 | 23.89° C | 51% | 1002.4 hPa | 0 mm | - | 0 W/m² | - |
| 1778027105 | 23.89° C | 50% | 1002.4 hPa | 0 mm | - | 0 W/m² | - |
| 1778026505 | 24.44° C | 49% | 1002.3 hPa | 0 mm | - | 0 W/m² | - |
| 1778019004 | 26.67° C | 40% | 1002.2 hPa | 0 mm | - | 0 W/m² | - |
| 1778017804 | 27.22° C | 39% | 1002 hPa | 0 mm | - | 0 W/m² | - |
| 1778014505 | 27.78° C | 34% | 1002.1 hPa | 0 mm | - | 0 W/m² | - |
| 1778013905 | 27.78° C | 34% | 1002.1 hPa | 0 mm | - | 0 W/m² | - |
| 1778013005 | 27.78° C | 34% | 1002 hPa | 0 mm | - | 0 W/m² | - |
| 1778010005 | 28.89° C | 32% | 1002.6 hPa | 0 mm | - | 0 W/m² | - |
* Rain latest hour (hover to see other rain measurements)
** Current wind speed in m/s (hover to see current wind gust speed)